This is the latest recevied weather packets stored in our database for station/object 9W2SSS-1. If no packets are shown the sender has not sent any weather packets the latest 10 day(s).
| Time | Temp. | Humidity | Pressure | Rain* | Wind** | Luminosity | Snow |
|---|---|---|---|---|---|---|---|
| 1777933406 | 28.33° C | 69% | 1008.3 hPa | - | - | - | - |
| 1777932206 | 28.33° C | 68% | 1008 hPa | - | - | - | - |
| 1777931006 | 27.78° C | 67% | 1007.8 hPa | - | - | - | - |
| 1777929806 | 27.78° C | 66% | 1007.8 hPa | - | - | - | - |
| 1777928606 | 28.33° C | 68% | 1008 hPa | - | - | - | - |
| 1777927406 | 28.33° C | 71% | 1007.9 hPa | - | - | - | - |
| 1777926206 | 28.89° C | 70% | 1007.8 hPa | - | - | - | - |
| 1777925005 | 28.89° C | 70% | 1008 hPa | - | - | - | - |
| 1777923805 | 28.89° C | 71% | 1008.1 hPa | - | - | - | - |
| 1777922606 | 28.89° C | 71% | 1008.2 hPa | - | - | - | - |
| 1777921405 | 28.89° C | 70% | 1008.3 hPa | - | - | - | - |
| 1777920205 | 28.89° C | 70% | 1008.5 hPa | - | - | - | - |
| 1777919005 | 28.89° C | 70% | 1008.7 hPa | - | - | - | - |
| 1777917805 | 28.89° C | 70% | 1009.1 hPa | - | - | - | - |
| 1777916605 | 29.44° C | 71% | 1009.3 hPa | - | - | - | - |
| 1777915405 | 29.44° C | 70% | 1009.5 hPa | - | - | - | - |
| 1777914205 | 29.44° C | 69% | 1009.8 hPa | - | - | - | - |
| 1777913005 | 29.44° C | 69% | 1010 hPa | - | - | - | - |
| 1777911805 | 29.44° C | 67% | 1010 hPa | - | - | - | - |
| 1777910605 | 29.44° C | 68% | 1010.1 hPa | - | - | - | - |
| 1777909405 | 29.44° C | 70% | 1010.1 hPa | - | - | - | - |
| 1777908205 | 29.44° C | 70% | 1009.9 hPa | - | - | - | - |
| 1777907005 | 30° C | 69% | 1009.7 hPa | - | - | - | - |
| 1777905805 | 30° C | 69% | 1009.5 hPa | - | - | - | - |
| 1777904604 | 30° C | 70% | 1009.4 hPa | - | - | - | - |
* Rain since midnight (hover to see other rain measurements)
** Current wind speed in m/s (hover to see current wind gust speed)